C/2024 G3 ( ATLAS )

Japanese version
Home page
Updated on September 4, 2024

---------------------------------------------------------------------

* Profile

Discovery Date April 5, 2024
Magnitude 19.2 mag
Discoverer Asteroid Terrestrial-Impact Last Alert System (ATLAS) search program

* Pictures

* Orbital Elements

Epoch 2024 Oct. 17.0 TT = JDT 2460600.5
T 2025 Jan. 13.42927 TT                                 Rudenko
q   0.0935280            (2000.0)            P               Q
z  -0.0000995      Peri.  108.12473     -0.04069738     +0.81535430
 +/-0.0000861      Node   220.33817     +0.14761081     +0.57657294
e   1.0000093      Incl.  116.84680     +0.98820786     -0.05254523
>From 248 observations 2024 Apr. 5-Aug. 31, mean residual 0".4.

* Finding Charts

* Magnitudes Graph

        m1 = 9.0 + 5 log d + 10.0 log r

---------------------------------------------------------------------

The orbital elements are published on M.P.E.C. 2024-R10.
The charts are made with StellaNavigator Ver.11 (AstroArts).
The magnitudes graphs are made with Comet for Windows.

---------------------------------------------------------------------

Copyright(C) Seiichi Yoshida (comet@aerith.net). All rights reserved.